Theta_e
320 320 320 318 317 314 313 314 315 312 316 317 316 314 314 316 318 317 317 317 317 316 316 317 317 317 317 314 314 314 315 315 315 315 315 317 320 322 325 327 329 328 327 325
319 319 317 317 317 317 316 315 313 314 316 317 316 314 313 314 315 317 318 317 316 316 316 316 316 316 314 313 314 314 315 316 316 316 316 316 321 325 326 327 328 329 329 329
319 317 316 317 317 318 317 317 314 313 316 316 316 316 315 314 315 316 316 316 316 316 316 316 314 314 312 313 314 314 314 314 315 316 316 316 316 319 323 325 326 327 327 327
319 317 317 315 316 317 319 316 316 315 316 317 315 316 314 314 314 314 315 316 316 317 317 314 313 312 312 313 313 314 315 315 316 317 317 318 319 323 325 325 326 326 325 325
316 315 316 317 317 316 317 315 316 316 317 317 316 317 315 313 314 314 315 316 316 316 315 312 312 311 312 312 313 314 314 315 316 317 318 318 322 323 325 323 324 324 324 324
314 314 315 315 314 315 316 317 318 318 319 321 317 316 313 313 313 313 314 316 317 315 313 311 310 310 311 312 312 312 313 313 313 313 314 314 315 315 316 317 318 318 321 322
313 315 314 315 316 317 317 317 319 318 319 314 312 315 313 313 312 314 313 315 315 313 312 311 309 308 310 310 310 310 311 311 311 311 310 310 310 310 310 310 310 311 312 313
316 316 314 314 316 316 318 318 315 315 316 312 310 312 311 313 314 313 313 315 314 312 311 309 307 308 308 309 308 309 309 309 308 308 308 308 308 308 308 308 308 307 307 307
314 314 313 313 313 314 316 317 314 313 308 311 312 312 311 312 312 313 313 314 312 311 310 308 307 307 307 307 307 308 308 307 307 307 306 306 306 305 305 305 304 304 304 304
312 314 312 312 312 312 314 314 316 314 312 312 310 310 311 312 312 311 312 313 312 311 309 307 305 305 306 306 306 306 306 306 306 306 306 306 306 306 305 305 305 305 304 305
312 312 312 312 313 314 314 314 314 315 314 313 312 310 309 309 309 311 310 313 313 311 309 307 305 305 305 305 305 305 305 304 304 304 303 303 303 302 302 302 302 301 300 300
312 312 313 314 311 311 312 313 314 314 313 313 314 313 310 309 309 310 312 313 313 312 310 308 306 305 304 304 304 304 304 303 303 302 302 302 302 301 301 300 298 297 296 296
312 312 313 314 312 310 311 312 312 313 312 314 314 312 310 310 310 310 310 310 313 312 310 308 306 305 304 303 303 303 303 302 302 301 301 301 300 299 297 296 295 294 294 294
312 311 312 311 309 309 311 311 313 313 314 313 313 312 310 309 308 309 309 310 310 311 310 309 307 304 303 302 302 302 302 301 300 299 299 299 298 296 295 294 293 293 293 292
312 313 311 310 310 310 310 310 311 313 313 312 311 311 311 310 309 310 310 309 309 310 310 309 306 304 303 302 301 301 301 300 300 299 298 297 295 294 293 292 292 291 291 291
311 309 310 310 310 310 310 309 310 311 312 312 312 312 310 310 310 310 310 310 309 309 310 309 308 305 303 302 301 300 299 299 298 298 296 295 294 292 292 291 291 290 290 290
312 311 311 311 309 309 311 310 309 309 309 310 311 310 310 309 309 309 309 309 310 309 309 309 309 306 304 302 300 298 298 297 296 296 294 293 292 291 290 290 290 289 289 289
310 310 310 310 304 312 308 307 309 309 309 308 308 308 308 308 309 308 308 309 309 310 309 309 308 305 303 300 298 297 296 295 293 293 292 291 290 289 289 289 289 289 288 288
309 309 310 310 309 307 306 305 306 306 307 307 308 308 308 308 307 307 307 308 308 308 308 308 307 305 302 299 297 295 293 291 291 290 290 289 288 288 288 288 288 287 286 286
308 308 310 310 310 310 307 306 306 305 305 304 305 305 306 307 306 307 308 307 307 307 307 307 305 302 298 296 294 292 289 288 288 288 288 287 287 287 287 287 286 285 284 284
307 309 309 308 309 304 305 303 306 306 306 305 305 306 306 305 306 307 307 305 304 305 304 305 302 298 294 292 291 289 288 287 287 287 286 286 286 286 286 285 284 283 283 282
306 307 307 307 308 307 306 304 304 304 306 306 305 305 306 306 306 305 304 303 301 300 300 299 298 295 292 290 288 286 285 285 285 285 285 285 285 284 283 282 282 282 281 281
305 305 304 304 304 304 305 306 306 306 305 304 304 303 303 303 303 302 300 299 297 295 294 291 292 291 288 288 286 284 284 284 283 283 284 283 282 282 282 282 281 280 279 279
302 302 302 302 302 301 303 304 304 304 303 303 303 303 301 300 300 298 297 296 294 291 289 289 287 286 285 283 285 285 283 283 283 283 282 281 280 280 280 280 279 278 278 277
299 299 298 297 300 300 303 303 303 303 303 302 301 301 300 298 297 297 296 294 291 289 287 286 284 284 284 283 282 283 282 282 282 281 280 280 279 279 279 278 278 277 277 276
298 299 300 301 300 301 301 302 302 302 302 301 299 299 297 294 293 293 292 290 288 287 285 284 282 282 281 281 281 281 281 281 279 279 279 279 278 278 278 277 277 276 275 274
Wind_Speed
14 4 11 14 11 10 2 4 10 8 5 4 9 12 10 18 18 16 18 18 21 21 18 22 21 17 17 16 13 12 12 12 13 16 16 15 15 15 16 16 20 23 20 19
6 13 12 10 10 10 8 6 8 2 4 1 8 13 11 14 17 21 23 26 25 22 21 20 14 11 13 11 9 8 8 8 9 10 12 15 14 12 9 10 12 15 18 18
8 3 19 14 9 11 10 8 7 6 3 4 8 12 16 14 28 26 29 30 28 24 19 12 10 9 10 8 6 5 6 7 8 9 9 7 9 9 8 9 9 8 12 14
11 10 16 11 13 10 12 8 8 7 4 3 9 6 9 6 14 17 27 30 29 25 16 11 9 10 10 7 5 3 3 4 5 5 5 4 7 8 6 8 9 8 11 13
4 8 9 11 10 9 5 5 9 9 5 6 10 8 4 7 6 9 18 20 19 20 21 16 14 13 9 7 5 4 1 0 1 2 2 2 5 8 11 13 12 11 11 13
9 2 3 7 6 7 5 4 3 3 3 8 9 8 5 8 9 6 6 21 18 25 21 18 16 13 12 10 8 6 4 3 3 3 4 4 3 2 1 1 3 4 9 12
9 7 4 2 7 4 10 9 3 3 4 6 5 11 13 14 5 4 9 13 24 24 23 19 17 15 13 11 10 9 6 4 3 2 2 1 0 1 2 3 3 3 4 6
9 7 11 7 7 5 13 10 4 6 4 3 8 7 5 2 9 9 4 19 21 22 18 17 17 16 14 12 10 8 6 4 3 3 3 3 4 5 7 8 8 9 10 10
10 8 11 16 7 10 6 11 7 4 3 2 5 5 8 5 6 4 7 19 22 21 22 21 19 17 15 13 11 9 9 7 6 6 6 7 8 9 9 9 10 11 12 12
2 3 4 6 11 10 7 5 6 6 4 5 6 7 8 4 9 9 10 15 22 21 21 20 19 18 16 13 12 12 10 9 9 9 11 12 11 11 12 13 14 14 15 17
2 3 1 6 9 14 10 5 5 5 5 4 2 5 7 3 3 13 15 24 22 22 21 21 20 20 18 16 16 14 12 11 11 11 11 12 12 13 14 16 17 18 18 19
15 5 4 8 1 9 16 13 11 5 6 4 7 14 5 1 3 4 16 24 26 26 26 23 23 22 20 20 18 17 16 15 13 12 12 13 14 15 16 17 18 19 18 18
15 5 5 3 4 4 7 13 17 15 6 9 8 15 6 13 15 10 9 4 23 26 26 24 24 25 24 23 22 20 18 17 14 13 13 14 14 15 16 16 16 15 14 13
24 5 13 16 9 8 7 13 19 16 8 14 14 27 16 9 9 5 8 13 14 21 27 28 28 28 27 27 25 25 22 18 15 14 14 14 14 15 15 14 13 11 9 7
10 9 13 17 11 5 7 11 16 18 23 14 22 21 25 16 10 17 18 23 19 23 30 31 30 30 31 32 30 27 24 19 17 16 16 15 14 13 12 11 9 8 6 5
11 7 8 12 15 15 14 11 11 23 23 17 24 22 22 26 26 24 26 21 23 30 35 35 34 35 37 37 34 30 27 22 20 19 17 15 14 13 11 9 7 5 4 3
13 8 6 12 13 8 11 22 19 15 16 19 17 25 22 24 21 27 27 28 35 32 34 37 40 41 40 40 37 32 28 24 22 21 18 15 14 12 11 9 7 6 5 6
13 13 7 6 3 14 11 11 17 22 18 16 18 22 26 27 39 39 27 27 30 30 33 39 41 42 42 41 37 34 29 24 22 19 17 14 12 11 10 8 7 7 8 9
11 9 7 8 11 11 8 9 11 10 18 18 22 24 32 35 36 34 40 34 37 39 36 37 42 45 44 41 37 31 28 24 21 18 16 13 12 10 9 8 7 7 7 8
2 4 8 4 8 15 11 14 22 5 4 15 22 15 18 29 12 15 39 25 22 28 30 34 38 41 39 36 31 28 25 23 21 18 15 13 11 9 8 7 6 7 9 11
7 6 13 10 8 5 6 8 13 8 12 26 23 28 25 10 16 22 26 20 18 21 25 32 36 35 32 28 26 26 25 24 20 17 14 12 10 9 8 7 7 9 10 12
11 7 5 6 9 16 11 7 12 13 5 13 13 17 22 26 23 22 21 21 18 20 24 30 32 32 29 24 25 25 23 21 18 16 13 12 10 8 7 7 8 10 11 13
4 9 5 6 6 7 19 23 32 30 22 20 21 21 20 21 25 24 21 20 20 21 23 23 27 28 26 27 27 25 23 20 17 15 13 11 9 8 7 7 9 11 12 14
7 9 5 1 11 9 14 13 15 16 16 20 23 24 23 19 21 21 22 22 23 22 22 24 25 25 24 26 28 23 20 17 15 13 11 10 9 7 6 8 10 11 14 15
6 6 7 5 11 4 14 19 20 23 24 25 26 26 26 22 25 25 25 26 26 25 25 24 24 24 25 25 23 22 20 17 14 13 10 9 8 7 7 9 10 12 14 15
9 8 5 9 10 10 20 28 28 27 28 27 25 25 24 23 22 23 23 25 27 26 26 25 25 24 25 24 22 19 17 14 12 10 9 9 9 8 9 10 11 12 13 13
Wind_Direction
187 184 195 189 216 245 329 296 218 264 151 188 237 255 257 248 205 224 246 249 256 262 263 258 242 253 271 269 275 281 284 283 279 271 269 273 284 287 283 281 279 289 294 274
164 218 204 217 199 229 261 255 282 262 86 124 289 279 269 249 254 234 231 241 249 253 258 228 227 251 257 254 259 273 290 296 297 290 271 256 245 246 249 263 275 294 298 303
194 185 213 207 213 206 220 224 255 261 163 265 292 280 253 248 247 237 240 246 247 250 254 197 201 236 241 238 239 257 277 293 296 298 293 270 256 277 294 292 307 313 301 295
227 207 183 217 212 204 225 213 235 284 305 259 161 286 301 284 230 228 236 242 242 230 229 199 210 218 208 207 216 243 277 299 308 310 291 275 210 209 220 235 243 261 284 288
186 198 194 200 207 202 226 235 221 227 256 285 264 279 255 239 199 205 226 230 227 213 195 184 195 206 196 195 192 204 204 335 348 348 341 276 224 235 236 249 252 262 267 278
227 68 299 187 215 193 131 111 153 229 214 245 217 225 228 215 214 218 241 206 186 175 171 185 200 198 196 193 193 192 178 149 113 92 86 80 86 67 51 349 276 255 249 261
226 179 155 155 182 153 154 148 159 209 212 233 214 208 245 296 317 204 188 184 167 164 175 192 195 199 199 196 198 189 181 172 165 154 129 115 24 335 338 333 310 294 274 271
189 196 184 172 196 169 190 189 167 184 199 263 174 233 244 32 231 212 214 175 167 171 186 191 196 209 206 205 207 209 223 242 246 252 274 302 311 310 308 307 307 310 313 313
193 228 165 173 176 168 175 219 235 334 135 89 228 258 306 188 269 275 157 157 170 178 184 197 209 213 213 213 215 225 240 247 258 275 290 299 304 303 300 298 299 302 303 302
140 156 340 151 187 236 164 150 192 215 209 222 244 241 230 127 204 224 178 189 182 186 199 209 210 215 220 220 227 231 238 250 265 277 284 288 292 292 292 293 292 294 295 294
181 158 204 115 210 186 195 203 224 173 217 192 256 239 194 150 356 202 203 197 186 194 204 213 217 224 226 227 230 234 240 247 255 262 269 275 281 284 287 291 294 295 295 294
198 121 179 212 180 227 210 208 202 187 211 248 268 263 306 146 68 15 223 202 198 204 214 220 228 232 234 230 228 232 237 242 246 253 263 271 276 282 287 291 293 296 297 296
180 186 146 173 269 303 225 214 221 221 251 226 233 257 205 252 243 204 221 238 198 202 210 220 232 241 239 232 231 237 241 244 248 255 263 270 277 284 290 294 296 297 296 296
174 160 217 223 223 139 199 209 213 219 221 231 224 256 257 271 290 238 192 223 216 206 207 225 235 239 238 236 236 240 242 244 250 258 266 272 278 283 287 290 294 297 299 301
162 218 212 240 260 225 191 206 216 219 231 221 245 240 257 255 248 265 254 233 233 214 221 229 237 242 238 238 236 238 243 245 251 257 265 272 278 282 285 286 288 292 302 315
177 229 191 238 236 235 244 198 210 223 235 247 252 261 268 275 276 279 279 278 242 227 227 234 241 242 240 238 238 239 241 241 245 251 255 261 267 272 273 273 272 276 289 314
180 207 159 236 235 237 252 235 220 223 227 228 240 249 259 267 268 265 264 265 263 257 242 238 245 242 240 239 237 237 238 238 239 243 248 253 258 262 262 262 265 277 298 317
192 202 208 249 78 236 235 231 219 229 234 232 243 250 253 257 267 271 272 270 266 261 254 247 241 240 240 240 236 234 235 235 237 239 243 246 249 250 251 255 269 291 309 319
203 186 212 234 237 260 305 231 207 206 239 233 238 247 257 266 272 281 274 269 264 264 267 264 242 236 235 236 234 230 228 228 231 233 234 236 237 241 246 255 274 293 308 319
212 177 201 191 230 237 242 237 236 183 238 241 236 242 244 254 262 268 280 276 262 259 257 245 229 227 228 230 227 225 222 220 222 224 224 226 227 234 250 267 289 307 317 322
202 203 219 228 242 251 229 139 118 167 235 248 239 234 247 239 244 267 280 275 253 243 235 223 219 218 221 223 220 219 216 218 218 217 216 218 222 231 242 267 294 305 315 320
186 187 199 219 231 247 212 122 187 219 187 230 248 235 243 254 258 269 272 263 250 230 211 210 211 213 220 217 213 212 212 212 210 208 208 215 222 234 253 277 294 305 312 314
199 201 192 173 215 218 198 207 226 235 243 250 267 268 257 251 260 267 260 254 244 230 218 219 216 213 209 204 205 207 208 202 201 201 208 215 226 241 262 286 301 307 310 313
225 219 211 208 250 238 244 259 245 241 253 261 265 269 273 262 257 258 255 248 240 228 223 221 216 208 200 199 198 203 201 197 199 206 214 223 235 250 276 294 302 306 307 309
205 153 206 259 260 298 280 264 266 266 267 265 264 265 265 259 258 262 253 244 235 226 220 217 217 209 201 196 198 187 190 192 198 207 217 230 247 265 283 291 300 306 306 310
205 213 197 236 240 216 246 260 260 262 265 264 264 265 267 266 263 254 242 237 232 221 214 208 208 207 198 190 188 185 186 195 204 214 224 238 254 272 287 295 301 303 303 306